Weather Roundup
Issued by NWS Corpus Christi, TX

Home | Current Version | Previous Version | Text Only | Print | Product List | Glossary On
Versions: 1 2 3 4 5 6 7 8 9 10 11 12 13 14 15 16 17 18 19 20 21 22 23 24 25 26 27 28 29 30 31 32 33 34 35 36 37 38 39 40 41 42 43 44 45 46 47 48 49 50
000
ASUS44 KCRP 300510
HRRCRP

SOUTH TEXAS REGIONAL WEATHER ROUNDUP
NATIONAL WEATHER SERVICE CORPUS CHRISTI TX
1200 AM CDT THU MAR 30 2017


TXZ229>244-300600-
...CORPUS CHRISTI AREA OBSERVATIONS...

CITY           SKY/WX    TMP DP  RH WIND       PRES   REMARKS
CORPUS CHRISTI CLEAR     65  61  87 CALM      29.83R
NAS CORPUS CHR CLEAR     72  66  81 SE8       29.82R
ROCKPORT       PTCLDY    73  62  68 SE7       29.81S
KINGSVILLE NAS PTCLDY    65  57  75 CALM      29.84R
ALICE          CLEAR     64  51  62 CALM      29.84R
ORANGE GROVE   PTCLDY    65  53  65 S6        29.84R
FALFURRIAS     CLEAR     65  56  71 CALM      29.84R
$$

...VICTORIA AREA OBSERVATIONS...

CITY           SKY/WX    TMP DP  RH WIND       PRES   REMARKS
VICTORIA       CLOUDY    66  60  81 NE3       29.81S
BEEVILLE       FAIR      65  53  65 CALM      29.82S
PLEASANTON     CLEAR     65  48  54 NW9       29.87R
SAN ANTONIO    CLEAR     66  45  46 N18G24    29.91R
$$

...LAREDO AREA OBSERVATIONS...

CITY           SKY/WX    TMP DP  RH WIND       PRES   REMARKS
LAREDO         PTCLDY    71  47  42 NE5       29.89R
COTULLA        PTCLDY    72  42  34 N15       29.89R
DEL RIO        CLEAR     63  40  42 NW15G21   30.00R
MCALLEN        CLEAR     74  63  68 NE5       29.83R
HEBBRONVILLE   CLEAR     61  50  66 CALM      29.89R
$$

...OTHER TEXAS OBSERVATIONS...

CITY           SKY/WX    TMP DP  RH WIND       PRES   REMARKS
BROWNSVILLE    CLOUDY    77  74  90 NE6       29.81R
HOUSTON        PTCLDY    66  65  96 CALM      29.82S
COL. STATION   CLEAR     63  55  75 W6        29.83R
AUSTIN         CLEAR     68  47  46 NW15G29   29.88R
WACO           CLEAR     60  51  72 NW13G22   29.88R
FORT WORTH     PTCLDY    59  48  67 W15       29.84S
WICHITA FALLS  PTCLDY    49  42  77 W10       29.88F
LUBBOCK        PTCLDY    44  40  85 W10       29.99F
EL PASO        PTCLDY    55  31  39 SE6       30.08S
$$

...MARINE OBSERVATIONS...

STATION/POSITION TIME  SKY/WX   TEMP    WIND        PRES    VSBY  WAVE   SWELL
                                AIR SEA DIR/SP/G                  HT/PER HT/PER
                 (UTC)          (F)     (DEG/KT/KT) (MB)    (MI)  (FT/S) (FT/S)
PORT ARANSAS     0500            72 73  110/ 10/ 11 1009.4R
BUOY 90 E PORT A 0450            75 73  130/  2/  4 1010.4R         6/ 8   7/ 8
BUOY 45 SE BAFFI 0450            73      60/ 10/ 10 1008.9F         7/ 8   7/ 8
BUOY 200 E PT IS 0350            77 77  140/ 14/ 17 1009.8          8/ 8   7/ 8
BUOY 15 E GALVES 0450            73 72  230/  8/ 10 1010.0F         5/ 9   5/ 9
$$



USA.gov is the U.S. government's official web portal to all federal, state and local government web resources and services.